�������l�o���
Date,Time,MP-1(��Sv/h),MP-2(��Sv/h),MP-3(��Sv/h),MP-4(��Sv/h),MP-5(��Sv/h),MP-6(��Sv/h),MP-7(��Sv/h),MP-8(��Sv/h),����,����(m/s),���J
2018/01/23,00:00,0.696,1.138,0.751,1.391,0.896,0.433,0.763,0.764,�k�k��,9.6,�L
2018/01/23,00:10,0.693,1.133,0.750,1.384,0.892,0.432,0.763,0.762,�k�k��,9.7,�L
2018/01/23,00:20,0.690,1.130,0.744,1.381,0.887,0.432,0.760,0.760,�k�k��,9.5,�L
2018/01/23,00:30,0.686,1.127,0.741,1.375,0.883,0.430,0.759,0.757,�k�k��,8.7,�L
2018/01/23,00:40,0.686,1.122,0.740,1.371,0.883,0.430,0.757,0.758,�k�k��,10.0,�L
2018/01/23,00:50,0.686,1.118,0.741,1.370,0.879,0.431,0.758,0.756,�k�k��,9.3,�L
2018/01/23,01:00,0.684,1.118,0.740,1.365,0.879,0.429,0.759,0.758,�k�k��,9.4,�L
2018/01/23,01:10,0.682,1.118,0.738,1.366,0.877,0.427,0.759,0.756,�k�k��,8.5,�L
2018/01/23,01:20,0.682,1.115,0.735,1.366,0.874,0.426,0.758,0.758,�k�k��,10.9,�L
2018/01/23,01:30,0.678,1.115,0.737,1.360,0.875,0.427,0.757,0.757,�k�k��,10.3,�L
2018/01/23,01:40,0.678,1.115,0.736,1.360,0.872,0.424,0.756,0.757,�k��,10.2,�L
2018/01/23,01:50,0.677,1.115,0.733,1.362,0.872,0.425,0.756,0.756,�k�k��,9.8,�L
2018/01/23,02:00,0.678,1.114,0.735,1.363,0.872,0.425,0.756,0.757,�k��,9.9,�L
2018/01/23,02:10,0.677,1.116,0.734,1.364,0.872,0.424,0.758,0.758,�k�k��,9.2,�L
2018/01/23,02:20,0.675,1.112,0.735,1.360,0.873,0.425,0.757,0.756,�k��,10.9,�L
2018/01/23,02:30,0.676,1.114,0.732,1.364,0.870,0.423,0.758,0.756,�k��,9.2,�L
2018/01/23,02:40,0.677,1.112,0.732,1.360,0.870,0.425,0.757,0.756,�k��,8.9,�L
2018/01/23,02:50,0.674,1.110,0.732,1.362,0.869,0.424,0.756,0.759,�k��,9.6,�L
2018/01/23,03:00,0.674,1.109,0.730,1.358,0.869,0.423,0.757,0.757,�k��,8.4,�L
2018/01/23,03:10,0.673,1.112,0.731,1.360,0.870,0.423,0.755,0.758,�k��,8.7,�L
2018/01/23,03:20,0.674,1.109,0.730,1.361,0.870,0.423,0.756,0.758,�k��,8.1,�L
2018/01/23,03:30,0.674,1.111,0.730,1.360,0.870,0.423,0.757,0.758,�k�k��,7.8,�L
2018/01/23,03:40,0.675,1.110,0.729,1.359,0.870,0.422,0.757,0.757,�k��,7.6,�L
2018/01/23,03:50,0.674,1.111,0.731,1.358,0.870,0.421,0.757,0.758,�k��,7.2,�L
2018/01/23,04:00,0.674,1.110,0.729,1.360,0.868,0.423,0.758,0.757,�k��,8.1,��
2018/01/23,04:10,0.671,1.109,0.728,1.360,0.868,0.421,0.755,0.756,�k��,7.8,��
2018/01/23,04:20,0.673,1.110,0.729,1.360,0.868,0.421,0.756,0.756,�k��,7.6,��
2018/01/23,04:30,0.673,1.108,0.729,1.361,0.868,0.420,0.756,0.756,�k��,7.9,��
2018/01/23,04:40,0.673,1.111,0.729,1.357,0.869,0.420,0.758,0.756,�k��,8.4,��
2018/01/23,04:50,0.673,1.111,0.727,1.355,0.867,0.419,0.757,0.756,�k��,8.6,��
2018/01/23,05:00,0.672,1.107,0.728,1.357,0.867,0.419,0.757,0.757,���k��,8.7,��
2018/01/23,05:10,0.674,1.110,0.730,1.355,0.866,0.421,0.755,0.757,�k��,8.4,��
2018/01/23,05:20,0.672,1.108,0.728,1.357,0.868,0.418,0.757,0.757,���k��,7.6,��
2018/01/23,05:30,0.672,1.110,0.729,1.359,0.865,0.420,0.757,0.757,���k��,7.4,��
2018/01/23,05:40,0.671,1.110,0.728,1.356,0.866,0.418,0.755,0.756,���k��,6.9,��
2018/01/23,05:50,0.674,1.110,0.729,1.357,0.870,0.420,0.757,0.756,���k��,6.7,��
2018/01/23,06:00,0.672,1.110,0.727,1.356,0.869,0.418,0.759,0.757,���k��,6.8,��
2018/01/23,06:10,0.672,1.109,0.728,1.357,0.867,0.420,0.757,0.756,���k��,6.6,��
2018/01/23,06:20,0.672,1.109,0.726,1.358,0.865,0.419,0.756,0.757,���k��,6.3,��
2018/01/23,06:30,0.673,1.110,0.728,1.359,0.867,0.421,0.757,0.756,�k��,5.5,��
2018/01/23,06:40,0.672,1.109,0.728,1.358,0.866,0.420,0.757,0.755,���k��,5.5,��
2018/01/23,06:50,0.674,1.108,0.727,1.359,0.868,0.420,0.758,0.757,���k��,5.1,��
2018/01/23,07:00,0.673,1.110,0.728,1.358,0.867,0.419,0.758,0.756,���k��,4.1,��
2018/01/23,07:10,0.672,1.110,0.729,1.357,0.866,0.418,0.757,0.756,�k��,4.6,��
2018/01/23,07:20,0.673,1.110,0.729,1.359,0.866,0.420,0.759,0.757,�k��,5.0,��
2018/01/23,07:30,0.672,1.110,0.730,1.358,0.867,0.420,0.758,0.757,�k��,4.8,��
2018/01/23,07:40,0.673,1.109,0.729,1.358,0.865,0.420,0.757,0.756,�k��,4.0,��
2018/01/23,07:50,0.674,1.109,0.729,1.358,0.867,0.420,0.756,0.756,�k��,3.5,��
2018/01/23,08:00,0.673,1.110,0.727,1.359,0.865,0.420,0.759,0.758,���k��,3.3,��
2018/01/23,08:10,0.674,1.109,0.729,1.358,0.867,0.419,0.757,0.757,���k��,2.3,��
2018/01/23,08:20,0.675,1.108,0.731,1.358,0.866,0.421,0.757,0.757,�k��,1.7,��
2018/01/23,08:30,0.675,1.107,0.728,1.358,0.865,0.419,0.757,0.757,�k��,1.7,��
2018/01/23,08:40,0.674,1.110,0.730,1.358,0.867,0.421,0.759,0.759,�k�k��,1.8,��
2018/01/23,08:50,0.674,1.109,0.730,1.358,0.864,0.420,0.758,0.757,�k�k��,2.0,��
2018/01/23,09:00,0.676,1.111,0.729,1.360,0.863,0.420,0.759,0.760,�쐼,2.3,��
2018/01/23,09:10,0.675,1.112,0.731,1.357,0.863,0.420,0.759,0.758,��,6.1,��
2018/01/23,09:20,0.676,1.115,0.729,1.357,0.862,0.421,0.760,0.758,��쓌,5.3,��
2018/01/23,09:30,0.676,1.112,0.732,1.356,0.862,0.420,0.760,0.757,��,4.6,��
2018/01/23,09:40,0.676,1.116,0.730,1.356,0.865,0.421,0.760,0.758,��쓌,4.8,��
2018/01/23,09:50,0.676,1.114,0.730,1.354,0.863,0.421,0.761,0.756,��쓌,5.0,��
2018/01/23,10:00,0.677,1.117,0.731,1.353,0.863,0.421,0.759,0.757,��쓌,5.0,��
2018/01/23,10:10,0.676,1.117,0.732,1.350,0.863,0.421,0.759,0.759,��쓌,5.8,��
2018/01/23,10:20,0.678,1.121,0.732,1.351,0.863,0.422,0.757,0.759,��,5.9,��
2018/01/23,10:30,0.678,1.120,0.732,1.346,0.864,0.421,0.758,0.759,��,5.7,��
2018/01/23,10:40,0.679,1.124,0.732,1.346,0.867,0.421,0.759,0.759,��,6.8,��
2018/01/23,10:50,0.679,1.126,0.734,1.341,0.868,0.421,0.760,0.759,��,7.2,��
2018/01/23,11:00,0.678,1.128,0.734,1.337,0.868,0.422,0.760,0.760,��쓌,7.3,��
2018/01/23,11:10,0.679,1.127,0.732,1.335,0.871,0.422,0.762,0.760,��쓌,8.5,��
2018/01/23,11:20,0.679,1.130,0.734,1.334,0.872,0.422,0.762,0.762,��쓌,8.7,��
2018/01/23,11:30,0.680,1.135,0.736,1.334,0.875,0.421,0.762,0.763,��쓌,7.3,��
2018/01/23,11:40,0.681,1.138,0.737,1.331,0.876,0.421,0.765,0.762,��쓌,8.3,��
2018/01/23,11:50,0.684,1.142,0.739,1.330,0.881,0.422,0.765,0.764,��쓌,7.8,��
2018/01/23,12:00,0.683,1.147,0.740,1.328,0.882,0.423,0.767,0.764,��쓌,8.2,��
2018/01/23,12:10,0.685,1.147,0.740,1.328,0.884,0.424,0.767,0.765,��쓌,7.5,��
2018/01/23,12:20,0.687,1.154,0.743,1.330,0.889,0.424,0.769,0.765,��쓌,7.5,��
2018/01/23,12:30,0.686,1.156,0.745,1.330,0.890,0.426,0.771,0.766,��쓌,7.0,��
2018/01/23,12:40,0.688,1.158,0.746,1.331,0.894,0.425,0.773,0.768,��,5.1,��
2018/01/23,12:50,0.691,1.160,0.746,1.334,0.895,0.426,0.775,0.769,�쐼,3.1,��
2018/01/23,13:00,0.691,1.165,0.749,1.336,0.899,0.428,0.776,0.770,��쐼,2.6,��
2018/01/23,13:10,0.693,1.168,0.749,1.336,0.903,0.429,0.777,0.771,���쐼,5.1,��
2018/01/23,13:20,0.692,1.170,0.752,1.338,0.904,0.428,0.777,0.772,�쐼,5.8,��
2018/01/23,13:30,0.697,1.172,0.752,1.342,0.907,0.430,0.778,0.771,���쐼,4.6,��
2018/01/23,13:40,0.694,1.172,0.756,1.345,0.912,0.429,0.779,0.771,���쐼,4.7,�L
2018/01/23,13:50,0.698,1.178,0.756,1.346,0.913,0.432,0.778,0.773,���k��,5.6,�L
2018/01/23,14:00,0.700,1.178,0.760,1.351,0.914,0.430,0.780,0.776,���쐼,3.1,��
2018/01/23,14:10,0.702,1.180,0.761,1.353,0.919,0.430,0.780,0.776,�쐼,5.4,��
2018/01/23,14:20,0.703,1.180,0.764,1.356,0.923,0.432,0.782,0.776,�쐼,5.3,��
2018/01/23,14:30,0.703,1.180,0.764,1.359,0.924,0.434,0.783,0.778,���쐼,7.4,��
2018/01/23,14:40,0.703,1.181,0.767,1.360,0.928,0.434,0.783,0.779,���쐼,10.8,��
2018/01/23,14:50,0.706,1.185,0.768,1.365,0.932,0.434,0.785,0.778,���쐼,10.8,�L
2018/01/23,15:00,0.704,1.187,0.771,1.369,0.935,0.432,0.785,0.780,��,9.9,�L
2018/01/23,15:10,0.707,1.191,0.771,1.373,0.937,0.435,0.786,0.783,��,12.2,�L
2018/01/23,15:20,0.706,1.192,0.774,1.377,0.939,0.436,0.788,0.781,���k��,13.0,�L
2018/01/23,15:30,0.708,1.194,0.774,1.381,0.938,0.437,0.788,0.784,��,10.6,��
2018/01/23,15:40,0.710,1.196,0.776,1.386,0.940,0.436,0.790,0.784,��,10.8,��
2018/01/23,15:50,0.710,1.194,0.777,1.387,0.941,0.438,0.789,0.785,��,11.7,��
2018/01/23,16:00,0.711,1.199,0.781,1.391,0.944,0.438,0.792,0.785,��,10.5,��
2018/01/23,16:10,0.711,1.199,0.782,1.396,0.944,0.438,0.792,0.785,��,9.2,�L
2018/01/23,16:20,0.711,1.201,0.781,1.400,0.947,0.439,0.792,0.787,���k��,12.7,�L
2018/01/23,16:30,0.714,1.203,0.784,1.402,0.951,0.439,0.792,0.788,���k��,11.6,�L
2018/01/23,16:40,0.713,1.203,0.784,1.404,0.948,0.439,0.792,0.789,��,9.2,��
2018/01/23,16:50,0.715,1.203,0.785,1.401,0.951,0.439,0.793,0.787,��,9.3,��
2018/01/23,17:00,0.715,1.204,0.786,1.409,0.952,0.437,0.796,0.788,���k��,12.7,��
2018/01/23,17:10,0.716,1.204,0.787,1.411,0.952,0.437,0.794,0.790,��,13.2,��
2018/01/23,17:20,0.716,1.207,0.785,1.411,0.950,0.437,0.796,0.789,��,13.2,��
2018/01/23,17:30,0.716,1.206,0.786,1.414,0.950,0.438,0.797,0.791,��,12.0,��
2018/01/23,17:40,0.716,1.206,0.788,1.414,0.951,0.438,0.795,0.790,��,10.7,��
2018/01/23,17:50,0.718,1.210,0.787,1.416,0.951,0.438,0.796,0.791,���k��,11.3,��
2018/01/23,18:00,0.717,1.207,0.786,1.419,0.951,0.437,0.797,0.790,��,11.6,��
2018/01/23,18:10,0.719,1.208,0.790,1.417,0.952,0.440,0.796,0.792,��,11.1,��
2018/01/23,18:20,0.717,1.210,0.791,1.423,0.953,0.438,0.797,0.791,��,12.4,��
2018/01/23,18:30,0.718,1.213,0.791,1.419,0.952,0.440,0.797,0.791,���k��,13.5,��
2018/01/23,18:40,0.718,1.211,0.791,1.420,0.953,0.439,0.797,0.791,���k��,13.9,��
2018/01/23,18:50,0.719,1.214,0.790,1.424,0.956,0.440,0.798,0.790,���k��,15.8,��
2018/01/23,19:00,0.721,1.213,0.789,1.427,0.953,0.438,0.799,0.791,��,14.6,��
2018/01/23,19:10,0.721,1.214,0.789,1.428,0.954,0.440,0.799,0.792,��,14.2,��
2018/01/23,19:20,0.720,1.213,0.793,1.428,0.954,0.438,0.798,0.793,��,15.5,��
2018/01/23,19:30,0.720,1.214,0.790,1.427,0.955,0.438,0.799,0.794,��,12.8,��
2018/01/23,19:40,0.721,1.215,0.791,1.428,0.955,0.439,0.800,0.794,��,12.0,��
2018/01/23,19:50,0.721,1.217,0.790,1.432,0.957,0.439,0.800,0.793,��,10.2,��
2018/01/23,20:00,0.720,1.215,0.792,1.431,0.957,0.440,0.799,0.794,��,12.1,��
2018/01/23,20:10,0.720,1.215,0.792,1.427,0.957,0.440,0.800,0.793,��,12.2,��
2018/01/23,20:20,0.723,1.217,0.795,1.433,0.956,0.440,0.800,0.791,��,10.2,��
2018/01/23,20:30,0.722,1.217,0.793,1.432,0.957,0.442,0.799,0.793,��,8.5,��
2018/01/23,20:40,0.722,1.217,0.793,1.433,0.955,0.440,0.799,0.793,��,6.5,��
2018/01/23,20:50,0.724,1.219,0.796,1.435,0.960,0.441,0.800,0.792,��,8.9,��
2018/01/23,21:00,0.724,1.219,0.795,1.435,0.959,0.442,0.800,0.793,��,10.9,��
2018/01/23,21:10,0.723,1.219,0.796,1.434,0.960,0.442,0.800,0.793,��,9.4,��
2018/01/23,21:20,0.726,1.218,0.795,1.437,0.959,0.442,0.799,0.794,���k��,8.7,��
2018/01/23,21:30,0.724,1.218,0.798,1.437,0.960,0.441,0.801,0.793,�k��,8.1,��
2018/01/23,21:40,0.726,1.220,0.796,1.438,0.962,0.442,0.798,0.793,�k��,5.6,��
2018/01/23,21:50,0.725,1.221,0.796,1.438,0.962,0.442,0.800,0.794,�k��,6.4,��
2018/01/23,22:00,0.725,1.221,0.796,1.436,0.962,0.442,0.799,0.794,�k��,6.8,��
2018/01/23,22:10,0.725,1.222,0.795,1.436,0.964,0.440,0.800,0.794,�k��,7.5,��
2018/01/23,22:20,0.725,1.222,0.796,1.438,0.964,0.442,0.801,0.795,�k�k��,7.3,��
2018/01/23,22:30,0.726,1.222,0.796,1.438,0.963,0.443,0.801,0.793,�k�k��,6.6,��
2018/01/23,22:40,0.725,1.220,0.795,1.441,0.963,0.443,0.800,0.794,�k��,6.4,��
2018/01/23,22:50,0.726,1.219,0.796,1.439,0.964,0.442,0.800,0.794,�k�k��,5.8,��
2018/01/23,23:00,0.726,1.223,0.796,1.439,0.963,0.440,0.800,0.795,�k�k��,5.7,��
2018/01/23,23:10,0.725,1.221,0.796,1.439,0.964,0.442,0.800,0.794,�k�k��,5.8,��
2018/01/23,23:20,0.727,1.219,0.799,1.440,0.965,0.443,0.801,0.795,�k�k��,5.7,��
2018/01/23,23:30,0.726,1.222,0.796,1.441,0.964,0.443,0.801,0.795,�k�k��,7.3,��
2018/01/23,23:40,0.726,1.221,0.798,1.443,0.963,0.442,0.800,0.794,�k�k��,7.2,��
2018/01/23,23:50,0.726,1.222,0.797,1.441,0.964,0.443,0.800,0.795,�k�k��,5.7,��
